Fulton, NY

4:27 AM EST on January 21, 2018 (GMT -0500)
Oswego County

Weather History for KFZY - June, 2013

Change the Weather History Date:

Thursday, June 6, 2013

  Actual Average (KSYR) Record (KSYR)
Temperature  
Mean Temperature 56 °F -  
Max Temperature 60 °F 73 °F 92 °F (1999)
Min Temperature 53 °F 52 °F 41 °F (1929)
Degree Days  
Heating Degree Days 8    
Growing Degree Days 6 (Base 50)    
Moisture  
Dew Point 52 °F    
Average Humidity 86    
Maximum Humidity 94    
Minimum Humidity 59    
Precipitation  
Precipitation 2.27 in - - ()
Sea Level Pressure  
Sea Level Pressure 30.00 in    
Wind  
Wind Speed 4 mph (ESE)    
Max Wind Speed 10 mph    
Max Gust Speed 22 mph    
Visibility 5 miles    
Events Rain    
Averages and records for this station are not official NWS values.
T = Trace of Precipitation, MM = Missing Value Source: NWS Daily Summary

Daily Weather History Graph

Daily Weather History Graph

Search for Another Location

Airport or City:

Trip Planner

Search our weather history database for the weather conditions in past years. The results will help you decide how hot, cold, wet, or windy it might be!

Date:

Astronomy

Jun. 06, 2013 Rise Set
Actual Time 5:25 AM EDT 8:43 PM EDT
Civil Twilight 4:50 AM EDT 9:18 PM EDT
Nautical Twilight 4:05 AM EDT 10:04 PM EDT
Astronomical Twilight 3:09 AM EDT 11:00 PM EDT
Moon 4:09 AM EDT (6/6) 7:00 PM EDT (6/6)
Length of Visible Light 16h 27m
Length of Day
15h 17m
Waning Crescent, 4% of the Moon is Illuminated
Jun 6
Waning Crescent
Jun 8
New
Jun 16
First Quarter
Jun 23
Full
Jun 30
Last Quarter

Hourly Weather History & Observations

Time (EDT) Temp. Dew Point Humidity Pressure Visibility Wind Dir Wind Speed Gust Speed Precip Events Conditions
12:54 AM 54.0 °F 46.0 °F 75% 30.10 in 10.0 mi Calm Calm - N/A   Clear
1:54 AM 54.0 °F 45.0 °F 72% 30.09 in 10.0 mi Calm Calm - N/A   Overcast
2:54 AM 55.0 °F 45.0 °F 69% 30.08 in 10.0 mi NE 3.5 mph - N/A   Overcast
3:54 AM 57.0 °F 43.0 °F 59% 30.06 in 10.0 mi Variable 3.5 mph - N/A   Overcast
4:54 AM 55.9 °F 44.1 °F 64% 30.04 in 10.0 mi Variable 5.8 mph - N/A   Mostly Cloudy
5:54 AM 57.0 °F 45.0 °F 64% 30.02 in 10.0 mi Variable 4.6 mph - N/A   Clear
6:54 AM 57.9 °F 46.9 °F 67% 30.02 in 10.0 mi ESE 5.8 mph - N/A   Overcast
7:54 AM 60.1 °F 48.9 °F 67% 30.01 in 10.0 mi Variable 4.6 mph - N/A   Overcast
8:54 AM 57.9 °F 51.1 °F 78% 30.04 in 6.0 mi Variable 3.5 mph - 0.02 in Rain Rain
9:49 AM 55.4 °F 53.6 °F 94% 30.05 in 2.0 mi Variable 3.5 mph - 0.15 in Rain Heavy Rain
9:54 AM 55.9 °F 53.1 °F 90% 30.06 in 2.0 mi ESE 3.5 mph - 0.18 in Rain Heavy Rain
10:54 AM 57.0 °F 54.0 °F 89% 30.04 in 2.5 mi Variable 5.8 mph - 0.28 in Rain Rain
11:03 AM 57.2 °F 53.6 °F 88% 30.04 in 3.0 mi ESE 6.9 mph - 0.02 in Rain Rain
11:54 AM 55.9 °F 53.1 °F 90% 30.04 in 2.5 mi Variable 5.8 mph - 0.16 in Rain Heavy Rain
12:07 PM 55.4 °F 53.6 °F 94% 30.03 in 3.0 mi SE 6.9 mph 17.3 mph 0.04 in Rain Rain
12:54 PM 55.9 °F 53.1 °F 90% 30.02 in 5.0 mi Variable 5.8 mph - 0.13 in Rain Light Rain
1:54 PM 55.9 °F 52.0 °F 87% 30.01 in 5.0 mi ESE 6.9 mph - 0.08 in Rain Light Rain
2:31 PM 55.4 °F 51.8 °F 88% 30.00 in 2.5 mi East 6.9 mph - 0.11 in Rain Rain
2:41 PM 55.4 °F 53.6 °F 94% 30.00 in 3.0 mi Variable 3.5 mph - 0.13 in Rain Rain
2:54 PM 55.9 °F 53.1 °F 90% 30.00 in 4.0 mi Variable 5.8 mph - 0.17 in Rain Rain
3:54 PM 55.9 °F 54.0 °F 93% 29.99 in 2.5 mi Variable 4.6 mph - 0.15 in Rain Rain
4:04 PM 57.2 °F 53.6 °F 88% 29.99 in 4.0 mi North - - 0.01 in Rain Light Rain
4:47 PM 57.2 °F 55.4 °F 94% 29.99 in 2.0 mi North - - 0.12 in Rain Heavy Rain
4:54 PM 57.0 °F 55.0 °F 93% 29.99 in 2.5 mi North - - 0.14 in Rain Rain
5:16 PM 57.2 °F 55.4 °F 94% 29.99 in 2.5 mi North - - 0.10 in Rain Rain
5:29 PM 57.2 °F 55.4 °F 94% 29.99 in 2.0 mi South 3.5 mph - 0.17 in Rain Heavy Rain
5:37 PM 57.2 °F 55.4 °F 94% 29.99 in 1.5 mi Variable 4.6 mph - 0.22 in Rain Heavy Rain
5:54 PM 57.0 °F 54.0 °F 89% 30.00 in 3.0 mi SE 8.1 mph - 0.28 in Rain Rain
6:05 PM 57.2 °F 53.6 °F 88% 29.99 in 2.0 mi SE 10.4 mph 21.9 mph 0.04 in Rain Rain
6:17 PM 55.4 °F 51.8 °F 88% 29.99 in 4.0 mi SE 6.9 mph 17.3 mph 0.07 in Rain Light Rain
6:54 PM 55.0 °F 52.0 °F 89% 29.98 in 2.0 mi ESE 4.6 mph - 0.18 in Rain Rain
7:31 PM 55.4 °F 53.6 °F 94% 29.97 in 2.5 mi Variable 4.6 mph - 0.11 in Rain Rain
7:40 PM 55.4 °F 53.6 °F 94% 29.97 in 3.0 mi Variable 6.9 mph - 0.12 in Rain Rain
7:54 PM 55.9 °F 53.1 °F 90% 29.96 in 3.0 mi East 8.1 mph - 0.14 in Rain Light Rain
8:54 PM 54.0 °F 51.1 °F 90% 29.94 in 4.0 mi Variable 6.9 mph - 0.07 in Rain Rain
9:11 PM 53.6 °F 51.8 °F 94% 29.93 in 5.0 mi Variable 5.8 mph 20.7 mph 0.04 in Rain Rain
9:27 PM 53.6 °F 51.8 °F 94% 29.93 in 4.0 mi ESE 8.1 mph - 0.08 in Rain Rain
9:54 PM 54.0 °F 51.1 °F 90% 29.92 in 5.0 mi Variable 5.8 mph 17.3 mph 0.12 in Rain Light Rain
10:54 PM 55.0 °F 52.0 °F 89% 29.91 in 7.0 mi Variable 6.9 mph - 0.02 in Rain Light Rain
11:35 PM 55.4 °F 53.6 °F 94% 29.89 in 4.0 mi ESE 8.1 mph - 0.07 in Rain Rain
11:54 PM 55.0 °F 53.1 °F 93% 29.88 in 3.0 mi Variable 6.9 mph - 0.15 in Rain Heavy Rain